Regional Weather Roundup
Issued by NWS Northern Indiana

Home | Current Version | Previous Version | Graphics & Text | Print | Product List | Glossary On
Versions: 1 2 3 4 5 6 7 8 9 10 11 12 13 14 15 16 17 18 19 20 21 22 23 24 25 26 27 28 29 30 31 32 33 34 35 36 37 38 39 40 41 42 43 44 45 46 47 48 49 50
000
ASUS43 KIWX 181810
RWRIWX

KIWX WEATHER ROUNDUP
NATIONAL WEATHER SERVICE NORTHERN INDIANA
200 PM EDT THU SEP 18 2014

NOTE: "FAIR" INDICATES FEW OR NO CLOUDS BELOW 12,000 FEET WITH NO
SIGNIFICANT WEATHER AND/OR OBSTRUCTIONS TO VISIBILITY.

* THESE STATIONS ARE NOT UNDER NWS QUALITY CONTROL. THEY ALSO MAY NOT
  REPORT WEATHER SUCH AS PRECIPITATION OR FOG.

INZ001>027-181900-
NORTHERN INDIANA

CITY           SKY/WX    TMP DP  RH WIND       PRES   REMARKS
GARY*          MOSUNNY   70  48  46 NE10      30.15S
VALPARAISO     SUNNY     70  47  43 E8        30.14F
6HR MIN TEMP:  44; 6HR MAX TEMP:  70;

MICHIGAN CITY* SUNNY     68  48  49 N6        30.15S
LAPORTE*       SUNNY     68  47  46 E8        30.15S
6HR MIN TEMP:  43; 6HR MAX TEMP:  68;

KNOX*          SUNNY     68  47  47 E5        30.13F
6HR MIN TEMP:  41; 6HR MAX TEMP:  89;

SOUTH BEND     SUNNY     70  46  42 NE5       30.15S
6HR MIN TEMP:  44; 6HR MAX TEMP:  70;

ELKHART*       SUNNY     68  46  45 N6        30.15F
GOSHEN         SUNNY     70  48  45 E5        30.14F
6HR MIN TEMP:  41; 6HR MAX TEMP:  70;

MONTICELLO*    SUNNY     69  48  47 NE8       30.11F
6HR MIN TEMP:  46; 6HR MAX TEMP:  69;

LOGANSPORT*    SUNNY     68  45  42 E8        30.13S
ROCHESTER*     SUNNY     72  46  40 E8        30.13F
WARSAW*        SUNNY     68  48  49 E6        30.14S
ANGOLA*          N/A     70  48  46 NE3       30.14S
FORT WAYNE     MOSUNNY   68  50  52 N8        30.13F
6HR MIN TEMP:  46; 6HR MAX TEMP:  68;

HUNTINGTON*    SUNNY     68  50  53 NE6       30.13R
6HR MIN TEMP:  43; 6HR MAX TEMP:  68;

MARION*        SUNNY     69  46  44 E8        30.13R
6HR MIN TEMP:  40; 6HR MAX TEMP:  90;


$$
INZ028>050-181900-
CENTRAL INDIANA

CITY           SKY/WX    TMP DP  RH WIND       PRES   REMARKS
LAFAYETTE      SUNNY     68  46  45 E10       30.11F
6HR MIN TEMP:  44; 6HR MAX TEMP:  68;

KOKOMO*        SUNNY     70  50  49 NE12      30.12R
6HR MIN TEMP:  45; 6HR MAX TEMP:  70;

MUNCIE*        SUNNY     70  47  43 VRB7G16   30.11R
6HR MIN TEMP:  44; 6HR MAX TEMP:  70;

INDIANAPOLIS   MOSUNNY   69  49  48 SE6       30.10S
6HR MIN TEMP:  51; 6HR MAX TEMP:  70;


$$
MIZ043>046-050>051-056>058-064>065-071>073-077>080-181900-
SOUTHWEST LOWER MICHIGAN

CITY           SKY/WX    TMP DP  RH WIND       PRES   REMARKS
BATTLE CREEK   SUNNY     66  49  54 N5        30.17S
6HR MIN TEMP:  45; 6HR MAX TEMP:  67;

BENTON HARBOR    N/A     65  52  62 NW7       30.15S
COLDWATER*     PTSUNNY   68  48  48 N5        30.15S
6HR MIN TEMP:  43; 6HR MAX TEMP:  69;

HILLSDALE*     SUNNY     67  47  48 E5        30.15S
6HR MIN TEMP:  48; 6HR MAX TEMP:  68;

HOLLAND        PTSUNNY   69  53  56 S6        30.17S
6HR MIN TEMP:  50; 6HR MAX TEMP:  70;

GRAND RAPIDS   PTSUNNY   66  55  67 VRB3      30.17S
6HR MIN TEMP:  45; 6HR MAX TEMP:  66;

KALAMAZOO      SUNNY     69  48  47 VRB3      30.16S
6HR MIN TEMP:  43; 6HR MAX TEMP:  69;

STURGIS*       SUNNY     66  48  52 NW3       30.14S
THREE RIVERS*  FAIR      68  49  49 E3        30.15F

$$
OHZ001>008-015>018-024>025-181900-
NORTHWEST OHIO

CITY           SKY/WX    TMP DP  RH WIND       PRES   REMARKS
WAUSEON*       FAIR      70  46  43 VRB6      30.14S
DEFIANCE       SUNNY     70  48  45 N8        30.13F
6HR MIN TEMP:  46; 6HR MAX TEMP:  70;

FINDLAY        SUNNY     71  47  42 E8        30.11F
6HR MIN TEMP:  46; 6HR MAX TEMP:  72;

TOLEDO EXPRESS SUNNY     70  48  45 NE5       30.14S
6HR MIN TEMP:  46; 6HR MAX TEMP:  70;

TOLEDO METCALF MOSUNNY   68  49  50 VRB7      30.15S
6HR MIN TEMP:  49; 6HR MAX TEMP:  69;

LIMA           SUNNY     70  48  45 NE6       30.12F
6HR MIN TEMP:  45; 6HR MAX TEMP:  70;


$$
&&



USA.gov is the U.S. government's official web portal to all federal, state and local government web resources and services.